TimeMDT,TemperatureF,Dew PointF,Humidity,Sea Level PressureIn,VisibilityMPH,Wind Direction,Wind SpeedMPH,Gust SpeedMPH,PrecipitationIn,Events,Conditions,WindDirDegrees,DateUTC
12:54 AM,69.1,35.1,29,29.42,10.0,WSW,5.8,-,N/A,,Clear,250,2013-09-26 06:54:00
1:54 AM,69.1,30.0,23,29.43,10.0,SW,13.8,23.0,N/A,,Clear,220,2013-09-26 07:54:00
2:54 AM,66.9,26.1,21,29.44,10.0,WSW,12.7,21.9,N/A,,Clear,250,2013-09-26 08:54:00
3:54 AM,64.9,24.1,21,29.46,10.0,WSW,15.0,-,N/A,,Clear,240,2013-09-26 09:54:00
4:54 AM,64.0,24.1,22,29.49,10.0,West,10.4,-,N/A,,Clear,270,2013-09-26 10:54:00
5:54 AM,62.1,23.0,22,29.50,10.0,WSW,13.8,-,N/A,,Clear,250,2013-09-26 11:54:00
6:54 AM,60.1,24.1,25,29.55,10.0,West,11.5,-,N/A,,Clear,260,2013-09-26 12:54:00
7:54 AM,63.0,28.0,27,29.57,10.0,SW,10.4,-,N/A,,Clear,230,2013-09-26 13:54:00
8:54 AM,73.0,24.1,16,29.55,10.0,WSW,16.1,-,N/A,,Clear,240,2013-09-26 14:54:00
9:54 AM,77.0,21.0,12,29.55,10.0,WSW,16.1,23.0,N/A,,Clear,250,2013-09-26 15:54:00
10:54 AM,80.1,21.9,12,29.54,10.0,WSW,15.0,20.7,N/A,,Clear,250,2013-09-26 16:54:00
11:54 AM,82.0,21.0,10,29.53,10.0,SW,12.7,-,N/A,,Clear,230,2013-09-26 17:54:00
12:54 PM,82.9,18.0,9,29.51,10.0,West,4.6,-,N/A,,Clear,280,2013-09-26 18:54:00
1:54 PM,84.0,17.1,8,29.48,10.0,West,8.1,-,N/A,,Clear,260,2013-09-26 19:54:00
2:54 PM,86.0,15.1,7,29.47,10.0,SSW,19.6,29.9,N/A,,Clear,200,2013-09-26 20:54:00
3:01 PM,86.0,15.8,7,29.76,10.0,SW,21.9,29.9,N/A,,Clear,230,2013-09-26 21:01:00
3:54 PM,84.9,12.9,7,29.49,10.0,SSW,23.0,33.4,N/A,,Clear,210,2013-09-26 21:54:00
4:54 PM,82.0,25.0,12,29.49,10.0,South,23.0,31.1,N/A,,Clear,180,2013-09-26 22:54:00
5:54 PM,79.0,26.1,14,29.50,10.0,South,28.8,33.4,N/A,,Clear,180,2013-09-26 23:54:00
6:54 PM,75.0,28.0,18,29.54,10.0,South,17.3,26.5,N/A,,Clear,190,2013-09-27 00:54:00
7:54 PM,71.1,26.1,19,29.57,10.0,SSW,12.7,-,N/A,,Clear,210,2013-09-27 01:54:00
8:54 PM,68.0,26.1,21,29.56,10.0,SSW,10.4,-,N/A,,Clear,200,2013-09-27 02:54:00
9:54 PM,72.0,37.0,28,29.53,10.0,South,21.9,32.2,N/A,,Clear,190,2013-09-27 03:54:00
10:54 PM,71.1,37.0,29,29.54,10.0,South,20.7,29.9,N/A,,Clear,180,2013-09-27 04:54:00
11:54 PM,69.1,37.9,32,29.54,10.0,South,20.7,-,N/A,,Clear,180,2013-09-27 05:54:00